Hourly Weather Roundup
Issued by NWS Central Illinois

Home | Current Version | Previous Version | Text Only | Print | Product List | Glossary On
Versions: 1 2 3 4 5 6 7 8 9 10 11 12 13 14 15 16 17 18 19 20 21 22 23 24 25 26 27 28 29 30 31 32 33 34 35 36 37 38 39 40 41 42 43 44 45 46 47 48 49 50
000
NZUS43 KILX 172210
HWRILX

AREA WEATHER ROUNDUP
NATIONAL WEATHER SERVICE, LINCOLN IL
500 PM CDT THU APR 17 2014


CITY           SKY/WX    TMP DP  RH WIND       PRES   REMARKS
BLOOMINGTON    CLOUDY    57  38  49 SW10      30.23S
CHAMPAIGN      CLOUDY    63  37  38 SW13      30.22S
DANVILLE       PTSUNNY   64  36  35 SW14      30.19S
DECATUR        CLOUDY    61  38  42 W8        30.23S
FLORA          NOT AVBL
GALESBURG      MOSUNNY   53  38  58 SW6       30.25R
JACKSONVILLE   CLOUDY    57  39  50 W5        30.25S
LACON          PTSUNNY   56  38  51 W9        30.23R
LAWRENCEVILLE  MOSUNNY   66  38  35 SW9       30.24F
LITCHFIELD     CLOUDY    61  39  44 CALM      30.23S
$$


CITY           SKY/WX    TMP DP  RH WIND       PRES   REMARKS
LINCOLN        CLOUDY    60  39  45 W3        30.23R
MACOMB         CLOUDY    52  36  54 W6        30.28R
MATTOON        PTSUNNY   64  35  34 SW10      30.22S
MT CARMEL AP   SUNNY     68  34  28 S9G16     30.24S
OLNEY-NOBLE AP MOSUNNY   64  36  34 S9        30.24S
PARIS          MOSUNNY   66  39  37 SW9       30.24R
PEORIA         PTSUNNY   56  37  49 NW9       30.24R
PONTIAC        CLOUDY    61  39  44 W12       30.22R
RANTOUL        CLOUDY    64  37  36 SW13      30.23R
ROBINSON       MOSUNNY   67  40  37 S13       30.25R
SPRINGFIELD    CLOUDY    60  37  42 NW9       30.24R
TAYLORVILLE    CLOUDY    61  37  41 SW3       30.23S
$$

...REGIONAL REPORTS...


CITY           SKY/WX    TMP DP  RH WIND       PRES   REMARKS
CHICAGO O`HARE CLOUDY    60  37  42 SW13      30.19R
KANKAKEE       CLOUDY    62  39  43 W13G22    30.21R
MOLINE         MOSUNNY   54  35  48 NW6       30.23R
MOUNT VERNON   PTSUNNY   68  36  30 S12       30.24R
PITTSFIELD     CLOUDY    55  38  53 W5        30.27R
QUINCY         CLOUDY    52  36  54 W3        30.25S
ROCKFORD       CLOUDY    57  36  45 W9        30.22S
$$


CITY           SKY/WX    TMP DP  RH WIND       PRES   REMARKS
BURLINGTON     PTSUNNY   52  35  52 CALM      30.24S
CEDAR RAPIDS   SUNNY     50  33  52 NW14      30.23S
DES MOINES     MOSUNNY   54  29  38 VRB3      30.25F
KIRKSVILLE     CLOUDY    52  33  48 SE3       30.26S
OTTUMWA        SUNNY     50  32  50 NW10      30.24F
ST LOUIS       CLOUDY    65  38  36 NW7       30.22S
$$


CITY           SKY/WX    TMP DP  RH WIND       PRES   REMARKS
TERRE HAUTE    MOSUNNY   65  35  33 SW10      30.24S
EVANSVILLE     SUNNY     67  37  33 S6        30.25S
INDIANAPOLIS   PTSUNNY   63  33  32 SW12      30.23F
LAFAYETTE      MOSUNNY   65  35  33 SW7       30.21F
MADISON        PTSUNNY   54  36  50 NW8       30.20R
MILWAUKEE      PTSUNNY   55  37  50 W5        30.21R
$$





USA.gov is the U.S. government's official web portal to all federal, state and local government web resources and services.